Flag for U.S.A. Weather past 2 weeks in Arlington, Texas, U.S.A.

Now
75 °F

Overcast.


Feels Like: 77 °F
Forecast: 70 / 87 °F
Wind: 3 mph from East

Location: Arlington Municipal Airport

Current Time: Aug 1, 2014 at 11:50:54 PM

Latest Report: Aug 1, 2014 at 10:53 PM


Visibility: 10 mi

Pressure: 30.03 "Hg

Humidity: 71%

Dew point: 65 °F

Location of ArlingtonLocation

Historic Weather in Arlington — Graph

°F

Arlington temperature yesterday

Maximum temperature yesterday: 82 °F (at 12:53 AM)
Minimum temperature yesterday: 72 °F (at 10:53 PM)
Average temperature yesterday: 77 °F

Past Weeks' High & Low Weather Summary

 TemperatureHumidityPressure
High101 °F (Jul 27, 3:53 PM)94% (Jul 18, 3:01 AM)30.14 "Hg (Jul 18, 3:01 AM)
Low65 °F (Jul 20, 5:53 AM)26% (Jul 27, 4:53 PM)29.86 "Hg (Jul 30, 7:53 PM)
Average81 °F63%29.99 "Hg
* Reported Jul 17 10:53 PM — Aug 1 10:53 PM, Arlington, Weather by CustomWeather, © 2014

Note: Actual official high and low records may vary slightly from our data, if they occured in-between our weather recording intervals... More about our weather records

Advertising

Arlington weather history for previous 24 hours

 ConditionsComfort  
Time TempWeatherWind HumidityBarometerVisibility
10:53 PM
Aug 1
75 °FOvercast.3 mph71%30.03 "Hg10 mi
9:53 PM75 °FPassing clouds.No wind69%30.01 "Hg10 mi
8:53 PM77 °FPartly sunny.8 mph64%30.00 "Hg10 mi
7:53 PM78 °FPassing clouds.9 mph64%29.99 "Hg10 mi
6:53 PM80 °FBroken clouds.10 mph58%29.98 "Hg10 mi
5:53 PM81 °FScattered clouds.9 mph56%29.99 "Hg10 mi
4:53 PM80 °FOvercast.12 mph60%30.00 "Hg10 mi
3:53 PM78 °FCloudy.9 mph64%30.02 "Hg10 mi
2:53 PM78 °FOvercast.8 mph64%30.03 "Hg10 mi
1:53 PM77 °FOvercast.12 mph66%30.04 "Hg10 mi
12:53 PM76 °FOvercast.12 mph69%30.04 "Hg10 mi
11:53 AM75 °FMostly cloudy.10 mph74%30.04 "Hg10 mi
10:53 AM72 °FMostly cloudy.8 mph84%30.05 "Hg10 mi
9:53 AM71 °FOvercast.8 mph87%30.03 "Hg10 mi
8:53 AM70 °FLight rain. Fog.10 mph90%30.03 "Hg3 mi
8:02 AM70 °FLight rain. Fog.8 mph88%30.04 "Hg2 mi
6:53 AM71 °FOvercast.9 mph81%30.00 "Hg10 mi
5:53 AM71 °FOvercast.9 mph81%29.98 "Hg10 mi
4:53 AM72 °FOvercast.8 mph78%29.98 "Hg10 mi
3:53 AM72 °FOvercast.7 mph78%29.98 "Hg10 mi
2:53 AM72 °FMostly cloudy.9 mph78%29.99 "Hg10 mi
1:53 AM72 °FOvercast.10 mph78%30.00 "Hg10 mi
12:53 AM72 °FMostly cloudy.8 mph76%30.01 "Hg10 mi
11:53 PM
Jul 31
72 °FOvercast.10 mph76%30.02 "Hg10 mi
Weather by CustomWeather, © 2014

See weather overviewHow to use our weather pages